Merced, CA

7:13 PM PST on December 10, 2017 (GMT -0800)
Merced Municipal-Macready

Weather History for KMCE - May, 2013

Change the Weather History Date:

Saturday, May 25, 2013

  Actual Average Record
Temperature  
Mean Temperature 66 °F 69 °F  
Max Temperature 82 °F 84 °F 98 °F (2014)
Min Temperature 50 °F 53 °F 46 °F (2010)
Degree Days  
Heating Degree Days 0    
Month to date heating degree days 6  
Since 1 July heating degree days 2165  
Cooling Degree Days 1    
Month to date cooling degree days 147  
Year to date cooling degree days 208  
Growing Degree Days 16 (Base 50)    
Moisture  
Dew Point 41 °F    
Average Humidity 45    
Maximum Humidity 66    
Minimum Humidity 23    
Precipitation  
Precipitation 0.00 in 0.01 in 0.13 in (2010)
Month to date precipitation 0.10 0.53  
Year to date precipitation 2.69 8.50  
Since 1 July precipitation 7.52  
Snow  
Snow 0.00 in - - ()
Month to date snowfall 0.0  
Since 1 July snowfall 0.0  
Snow Depth 0.00 in    
Sea Level Pressure  
Sea Level Pressure 29.95 in    
Wind  
Wind Speed 6 mph (WNW)    
Max Wind Speed 13 mph    
Max Gust Speed 16 mph    
Visibility 10 miles    
Events      
T = Trace of Precipitation, MM = Missing Value Source: NWS Daily Summary

Daily Weather History Graph

Daily Weather History Graph

Search for Another Location

Airport or City:

Trip Planner

Search our weather history database for the weather conditions in past years. The results will help you decide how hot, cold, wet, or windy it might be!

Date:

Astronomy

May. 25, 2013 Rise Set
Actual Time 5:46 AM PDT 8:12 PM PDT
Civil Twilight 5:16 AM PDT 8:42 PM PDT
Nautical Twilight 4:39 AM PDT 9:19 PM PDT
Astronomical Twilight 3:58 AM PDT 10:00 PM PDT
Moon 9:05 PM PDT (5/25) 6:17 AM PDT (5/25)
Length of Visible Light 15h 26m
Length of Day
14h 26m
Waxing Gibbous, 99% of the Moon is Illuminated
May 25
Waxing Gibbous
May 31
Last Quarter
Jun 8
New
Jun 16
First Quarter
Jun 23
Full

Hourly Weather History & Observations

Time (PDT) Temp. Dew Point Humidity Pressure Visibility Wind Dir Wind Speed Gust Speed Precip Events Conditions
12:53 AM 54.0 °F 42.1 °F 64% 29.93 in 10.0 mi WSW 6.9 mph - N/A   Clear
1:53 AM 53.1 °F 42.1 °F 66% 29.94 in 10.0 mi West 6.9 mph - N/A   Clear
2:53 AM 52.0 °F 39.9 °F 63% 29.93 in 10.0 mi West 5.8 mph - N/A   Clear
3:53 AM 52.0 °F 39.9 °F 63% 29.94 in 10.0 mi West 6.9 mph - N/A   Clear
4:53 AM 53.1 °F 39.0 °F 59% 29.94 in 10.0 mi NW 5.8 mph - N/A   Clear
5:53 AM 50.0 °F 39.9 °F 68% 29.94 in 10.0 mi West 3.5 mph - N/A   Clear
6:53 AM 53.1 °F 41.0 °F 64% 29.96 in 10.0 mi NNW 6.9 mph - N/A   Clear
7:53 AM 57.0 °F 41.0 °F 55% 29.97 in 10.0 mi North 9.2 mph - N/A   Clear
8:53 AM 60.1 °F 42.1 °F 51% 29.97 in 10.0 mi NW 6.9 mph - N/A   Clear
9:53 AM 64.0 °F 41.0 °F 43% 29.98 in 10.0 mi Variable 5.8 mph - N/A   Clear
10:53 AM 68.0 °F 41.0 °F 37% 29.98 in 10.0 mi NW 6.9 mph - N/A   Clear
11:53 AM 71.1 °F 39.9 °F 32% 29.98 in 10.0 mi Variable 5.8 mph - N/A   Clear
12:53 PM 73.0 °F 39.0 °F 29% 29.96 in 10.0 mi Variable 3.5 mph - N/A   Clear
1:53 PM 75.9 °F 39.0 °F 26% 29.95 in 10.0 mi Variable 3.5 mph - N/A   Clear
2:53 PM 79.0 °F 37.9 °F 23% 29.94 in 10.0 mi Variable 5.8 mph - N/A   Clear
3:53 PM 79.0 °F 37.9 °F 23% 29.93 in 10.0 mi WNW 4.6 mph - N/A   Clear
4:53 PM 81.0 °F 41.0 °F 24% 29.92 in 10.0 mi NNW 10.4 mph - N/A   Clear
5:53 PM 80.1 °F 42.1 °F 26% 29.92 in 10.0 mi NW 9.2 mph - N/A   Clear
6:53 PM 78.1 °F 44.1 °F 30% 29.92 in 10.0 mi NW 8.1 mph - N/A   Clear
7:53 PM 73.0 °F 44.1 °F 35% 29.93 in 10.0 mi NW 6.9 mph - N/A   Clear
8:53 PM 66.9 °F 46.0 °F 47% 29.95 in 10.0 mi Calm Calm - N/A   Clear
9:53 PM 62.1 °F 45.0 °F 53% 29.97 in 10.0 mi West 4.6 mph - N/A   Clear
10:53 PM 60.1 °F 44.1 °F 55% 29.99 in 10.0 mi WSW 6.9 mph - N/A   Clear
11:53 PM 59.0 °F 42.1 °F 53% 30.00 in 10.0 mi Variable 3.5 mph - N/A   Clear